Weather in Verhnya Salda

Russia / Sverdlovsk Oblast     58°02′47″N   60°33′21″E
temp.,
°C
wind,
m/s
gust,
m/s
humid.,
%
clouds,
%
prec.,
mm/h
press.,
hPa
HPBL,
m
20 september, mon
mon2023:00+1nw5107456 0.0 1016724
02:00−1wnw4118317 0.0 1019372
05:00−2wnw399068 0.0 1021241
08:000wnw388598 0.0 1022219
11:00+4nnw4765100 0.0 1024933
14:00+6n3663100 0.0 10251427
17:00+6nnw3864100 0.0 10271298
20:00+4nw267369 0.0 1028214
21 september, tue
tue2123:000nnw228837 0.0 102933
02:00−1nw239352 0.0 103044
05:00−2w22950 0.0 103019
08:000wsw24845 0.0 102993
11:00+8w465223 0.0 1027782
14:00+10w564214 0.0 10251300
17:00+10wnw464895 0.0 10231358
20:00+4nw2574100 0.0 102493
22 september, wed
wed2223:00+1nw118485 0.0 102411
02:000wnw11915 0.0 102412
05:00−1nnw119469 0.0 102414
08:00+1nnw1284100 0.0 102467
11:00+8nne125823 0.0 1025566
14:00+11ne115049 0.0 10241167
17:00+10ne225477 0.0 10241207
20:00+7ene3675100 0.0 1026246
23 september, thu
thu2323:00+5ene2385100 0.0 1027102
02:00+5ne1287100 0.0 102869
05:00+2ne229650 0.0 103019
08:00+3ene129410 0.0 103183
11:00+8ese226868 0.0 1031925
14:00+9ese225991 0.1 10311195
17:00+9se22575 0.1 1031924
20:00+4se22780 0.0 103229
24 september, fri
fri2423:00+3sse24850 0.0 103284
02:00+2s26897 0.0 1032105
05:00+1s23925 0.0 103261
08:00+3s248316 0.0 1031112
11:00+10s23545 0.0 1031461
14:00+14s12435 0.0 1029912
17:00+14sse125013 0.0 1029238
20:00+7sse22745 0.0 102911